Stations météo

réclame
Mon MeteoGroup
Soederarm, Suède (2493): Température de l'air & dewpoint: 18.01.2020 16:00:00 - 24.01.2020 16:00:00 (CET)Soederarm, Suède (2493): Direction du vent: 18.01.2020 16:00:00 - 24.01.2020 16:00:00 (CET)Soederarm, Suède (2493): visibility: 18.01.2020 16:00:00 - 24.01.2020 16:00:00 (CET)
Date & Time tt [°C] td [°C] dd vv [km]
24.01.2020 16:00:00 4,5 2,2 W 50
24.01.2020 15:00:00 4,9 1,7 W 50
24.01.2020 14:00:00 5,5 1,6 W 50
24.01.2020 13:00:00 5,6 2,1 W 50
24.01.2020 12:00:00 5,2 2,2 W 43
24.01.2020 11:00:00 5,2 2,5 W 42
24.01.2020 10:00:00 4,8 3,0 W 49
24.01.2020 09:00:00 4,4 2,7 W 50
24.01.2020 08:00:00 4,4 2,7 W 50
24.01.2020 07:00:00 4,1 2,8 WSW 50
24.01.2020 06:00:00 4,5 2,8 W 50
24.01.2020 05:00:00 4,8 3,0 W 50
24.01.2020 04:00:00 4,9 2,9 W 50
24.01.2020 03:00:00 5,1 3,1 W 50
24.01.2020 02:00:00 5,4 3,2 W 50
24.01.2020 01:00:00 5,3 3,0 W 50
24.01.2020 00:00:00 5,1 3,0 W 50
23.01.2020 23:00:00 5,1 2,8 W 49
23.01.2020 22:00:00 5,0 2,5 W 50
23.01.2020 21:00:00 4,7 2,1 W 50
23.01.2020 20:00:00 4,2 1,7 W 50
23.01.2020 19:00:00 3,8 1,3 W 50
23.01.2020 18:00:00 3,8 1,0 W 50
23.01.2020 17:00:00 3,3 0,4 W 50
23.01.2020 16:00:00 3,2 -0,4 WSW 50
23.01.2020 15:00:00 3,0 -1,4 WSW 50
23.01.2020 14:00:00 2,9 -2,0 WSW 50
23.01.2020 13:00:00 2,6 -2,5 SW 50
23.01.2020 12:00:00 2,3 -2,6 SW 50
23.01.2020 11:00:00 1,9 -3,4 SW 49
23.01.2020 10:00:00 1,3 -3,4 WSW 50
23.01.2020 09:00:00 0,5 -3,2 WSW 50
23.01.2020 08:00:00 0,3 -3,6 W 50
23.01.2020 07:00:00 0,4 -3,7 W 50
23.01.2020 06:00:00 0,6 -4,1 W 50
23.01.2020 05:00:00 0,6 -3,7 W 50
23.01.2020 04:00:00 0,7 -3,4 W 50
23.01.2020 03:00:00 1,0 -3,5 W 50
23.01.2020 02:00:00 1,7 -2,8 WNW 50
23.01.2020 01:00:00 2,2 -2,5 WNW 50
23.01.2020 00:00:00 2,4 -2,3 WNW 43
22.01.2020 23:00:00 2,8 -2,1 NW 50
22.01.2020 22:00:00 3,1 -2,0 WNW 45
22.01.2020 21:00:00 3,5 -1,7 NW 50
22.01.2020 20:00:00 3,4 -1,7 NW 45
22.01.2020 19:00:00 3,2 -1,7 WNW 31
22.01.2020 18:00:00 3,3 -1,5 WNW 28
22.01.2020 17:00:00 3,7 -1,1 NW 35
22.01.2020 16:00:00 3,6 -1,0 NNW 30
22.01.2020 15:00:00 3,5 -0,7 NNW 27
22.01.2020 14:00:00 3,7 -0,1 NNW 25
22.01.2020 13:00:00 3,8 0,0 NNW 26
22.01.2020 12:00:00 3,9 -0,3 NNW 25
22.01.2020 11:00:00 4,1 -1,3 NW 34
22.01.2020 10:00:00 3,3 -3,3 NW 32
22.01.2020 09:00:00 3,2 -3,6 WNW 36
22.01.2020 08:00:00 3,3 -3,3 WNW 44
22.01.2020 07:00:00 3,4 -3,2 WNW 50
22.01.2020 06:00:00 3,6 -3,0 WNW 50
22.01.2020 05:00:00 4,0 -2,8 WNW 50
22.01.2020 04:00:00 4,3 -2,3 WNW 50
22.01.2020 03:00:00 4,7 -2,0 WNW 42
22.01.2020 02:00:00 5,2 -2,2 WNW 50
22.01.2020 01:00:00 5,4 -2,0 WNW 50
22.01.2020 00:00:00 5,7 -2,2 W 50
21.01.2020 23:00:00 5,7 -1,9 W 50
21.01.2020 22:00:00 5,6 -2,0 W 50
21.01.2020 21:00:00 5,5 -1,2 W 50
21.01.2020 20:00:00 5,1 -0,9 W 50
21.01.2020 19:00:00 5,6 -1,8 W 50
21.01.2020 18:00:00 5,5 -0,3 W 50
21.01.2020 17:00:00 5,4 0,9 W 50
21.01.2020 16:00:00 5,3 0,9 W 50
21.01.2020 15:00:00 5,3 1,0 W 50
21.01.2020 14:00:00 5,8 -0,1 WNW 50
21.01.2020 13:00:00 6,1 1,4 WNW 50
21.01.2020 12:00:00 5,8 1,1 NW 50
21.01.2020 11:00:00 6,0 3,3 WNW 43
21.01.2020 10:00:00 5,9 4,2 WNW 40
21.01.2020 09:00:00 6,6 4,6 WNW 26
21.01.2020 08:00:00 6,9 4,4 W 31
21.01.2020 07:00:00 6,9 4,4 W 32
21.01.2020 06:00:00 6,8 4,5 W 30
21.01.2020 05:00:00 6,7 4,4 W 28
21.01.2020 04:00:00 7,4 4,5 W 39
21.01.2020 03:00:00 7,7 4,3 W 40
21.01.2020 02:00:00 7,3 4,3 W 49
21.01.2020 01:00:00 7,3 4,1 W 47
21.01.2020 00:00:00 6,9 3,5 W 48
20.01.2020 23:00:00 7,2 3,3 W 48
20.01.2020 22:00:00 6,8 3,1 W 41
20.01.2020 21:00:00 6,4 2,8 W 41
20.01.2020 20:00:00 6,1 2,6 W 38
20.01.2020 19:00:00 5,8 2,6 W 47
20.01.2020 18:00:00 5,5 2,1 WSW 50
20.01.2020 17:00:00 5,3 2,0 WSW 50
20.01.2020 16:00:00 5,1 1,9 W 50
20.01.2020 15:00:00 4,6 1,6 WSW 50
20.01.2020 14:00:00 4,6 1,1 WSW 50
20.01.2020 13:00:00 4,2 0,9 WSW 50
20.01.2020 12:00:00 3,7 0,1 WSW 44
20.01.2020 11:00:00 3,7 -0,3 WSW 50
20.01.2020 10:00:00 3,3 -1,3 WSW 50
20.01.2020 09:00:00 3,3 -1,3 WSW 50
20.01.2020 08:00:00 3,2 -2,3 WSW 50
20.01.2020 07:00:00 3,1 -2,6 WSW 50
20.01.2020 06:00:00 2,7 -2,4 WSW 50
20.01.2020 05:00:00 2,5 -1,8 WSW 50
20.01.2020 04:00:00 2,3 -2,2 W 50
20.01.2020 03:00:00 2,2 -2,3 W 50
20.01.2020 02:00:00 2,3 -2,4 W 50
20.01.2020 01:00:00 2,5 -2,6 W 50
20.01.2020 00:00:00 2,8 -1,7 W 50
19.01.2020 23:00:00 3,0 -1,6 WNW 50
19.01.2020 22:00:00 3,3 -1,6 W 50
19.01.2020 21:00:00 3,5 -1,5 W 50
19.01.2020 20:00:00 3,9 -1,1 W 50
19.01.2020 19:00:00 4,0 -0,8 W 50
19.01.2020 18:00:00 4,3 -0,5 W 50
19.01.2020 17:00:00 4,5 0,1 W 50
19.01.2020 16:00:00 5,0 0,0 WNW 50
19.01.2020 15:00:00 5,2 0,6 WNW 50
19.01.2020 14:00:00 4,9 0,7 WNW 50
19.01.2020 13:00:00 4,9 0,1 W 50
19.01.2020 12:00:00 4,6 0,6 W 50
19.01.2020 11:00:00 4,2 0,7 W 50
19.01.2020 10:00:00 3,9 0,9 W 50
19.01.2020 09:00:00 3,7 1,2 W 50
19.01.2020 08:00:00 3,8 2,0 W 50
19.01.2020 07:00:00 3,8 2,3 W 50
19.01.2020 06:00:00 4,0 2,5 W 50
19.01.2020 05:00:00 4,5 2,8 W 50
19.01.2020 04:00:00 4,8 2,8 W 50
19.01.2020 03:00:00 4,9 2,9 W 50
19.01.2020 02:00:00 4,8 2,5 WSW 50
19.01.2020 01:00:00 4,6 2,5 WSW 50
19.01.2020 00:00:00 4,5 2,5 SW 50
18.01.2020 23:00:00 4,5 2,5 SSW 50
18.01.2020 22:00:00 4,6 2,6 SSW 50
18.01.2020 21:00:00 4,7 2,6 SSW 50
18.01.2020 20:00:00 5,0 2,7 SSW 50
18.01.2020 19:00:00 4,9 2,9 SSW 50
18.01.2020 18:00:00 4,7 3,4 SSW 50
18.01.2020 17:00:00 5,0 4,1 SSW 32
18.01.2020 16:00:00 4,9 3,9 SSW 17

tt = Température de l'air
td = dewpoint
dd = Direction du vent
vv = visibility

stations d'obs. à proximité